Home > Time Zones > World Clock > Weather > Norway > Alta > Past weeks

Flag for Norway Weather past 2 weeks in Alta, Norway

Now
40 °F

Chilly.


Feels Like: 33 °F
Forecast: 38 / 53 °F
Wind: 10 mph from Northwest

Location: Alta Lufthavn

Current Time: May 25, 2015 at 2:33:37 AM

Latest Report: May 25, 2015 at 2:00 AM


Visibility: N/A

Pressure: 29.69 "Hg

Humidity: 70%

Dew point: 31 °F

Location of AltaLocation

Historic Weather in Alta — Graph

°F

Alta temperature yesterday

Maximum temperature yesterday: 42 °F (at 3:00 PM)
Minimum temperature yesterday: 38 °F (at 11:00 AM)
Average temperature yesterday: 40 °F

Past Weeks' High & Low Weather Summary

 TemperatureHumidityPressure
High57 °F (May 22, 6:00 PM)95% (May 10, 2:00 AM)30.05 "Hg (May 10, 2:00 AM)
Low32 °F (May 18, 2:00 AM)33% (May 22, 2:00 PM)29.26 "Hg (May 23, 9:00 PM)
Average42 °F67%29.73 "Hg
* Reported May 10 1:00 AM — May 25 1:00 AM, Alta, Weather by CustomWeather, © 2015

Note: Actual official high and low records may vary slightly from our data, if they occured in-between our weather recording intervals... More about our weather records

Advertising

Alta weather history for previous 24 hours

 ConditionsComfort  
Time TempWeatherWind HumidityBarometerVisibility
1:00 AM
Mon, May 25
40 °FChilly.9 mph71%29.68 "HgN/A
12:00 AM41 °FQuite cool.10 mph61%29.67 "HgN/A
10:00 PM
Sun, May 24
41 °FQuite cool.9 mph59%29.65 "HgN/A
9:00 PM41 °FQuite cool.9 mph63%29.64 "HgN/A
8:00 PM40 °FQuite cool.13 mph68%29.63 "HgN/A
7:00 PM40 °FChilly.14 mph70%29.63 "HgN/A
6:00 PM40 °FQuite cool.16 mph67%29.60 "HgN/A
5:00 PM40 °FQuite cool.16 mph70%29.60 "HgN/A
4:00 PM41 °FQuite cool.16 mph69%29.59 "HgN/A
3:00 PM42 °FQuite cool.16 mph69%29.57 "HgN/A
2:00 PM41 °FQuite cool.13 mph71%29.54 "HgN/A
1:00 PM41 °FQuite cool.13 mph76%29.50 "HgN/A
12:00 PM39 °FChilly.14 mph79%29.50 "HgN/A
11:00 AM38 °FChilly.13 mph80%29.47 "HgN/A
10:00 AM39 °FChilly.14 mph81%29.47 "HgN/A
9:00 AM39 °FChilly.15 mph82%29.44 "HgN/A
8:00 AM39 °FChilly.16 mph82%29.41 "HgN/A
7:00 AM39 °FChilly.15 mph79%29.38 "HgN/A
6:00 AM39 °FChilly.13 mph78%29.35 "HgN/A
4:00 AM39 °FChilly.15 mph78%29.32 "HgN/A
3:00 AM40 °FChilly.15 mph81%29.29 "HgN/A
2:00 AM40 °FQuite cool.13 mph80%29.26 "HgN/A
Weather by CustomWeather, © 2015

See weather overviewHow to use our weather pages